QPF
0.04 0.06 0.08 0.07 0.06 0.05 0.05 0.04 0.03 0.03 0.03 0.02 0.02 0.02 0.01 0.02 0.04 0.04 0.03 0.03 0.03 0.03 0.03 0.02 0.02 0.02 0.02 0.01 0.02 0.02 0.02 0.03 0.05 0.08 0.07 0.04 0.04 0.04
0.02 0.03 0.04 0.05 0.05 0.05 0.04 0.04 0.03 0.03 0.02 0.01 0.02 0.02 0.02 0.02 0.03 0.02 0.02 0.03 0.03 0.03 0.03 0.02 0.02 0.02 0.02 0.02 0.02 0.02 0.01 0.01 0.01 0.03 0.07 0.07 0.04 0.03
0.02 0.02 0.02 0.03 0.05 0.05 0.04 0.03 0.03 0.03 0.02 0.02 0.01 0.02 0.03 0.04 0.04 0.03 0.02 0.02 0.02 0.04 0.04 0.03 0.03 0.03 0.03 0.03 0.03 0.04 0.03 0.02 0.02 0.03 0.03 0.05 0.05 0.04
0.02 0.02 0.02 0.03 0.04 0.05 0.05 0.04 0.03 0.03 0.03 0.02 0.02 0.03 0.04 0.05 0.05 0.05 0.04 0.04 0.05 0.05 0.05 0.04 0.03 0.02 0.02 0.02 0.02 0.03 0.03 0.02 0.02 0.03 0.03 0.02 0.02 0.03
0.03 0.03 0.04 0.04 0.04 0.04 0.05 0.05 0.03 0.02 0.03 0.03 0.03 0.04 0.05 0.06 0.06 0.07 0.06 0.06 0.05 0.04 0.04 0.03 0.03 0.02 0.02 0.02 0.02 0.02 0.02 0.02 0.01 0.01 0.02 0.02 0.02 0.02
0.03 0.03 0.03 0.03 0.02 0.03 0.02 0.02 0.03 0.03 0.02 0.02 0.02 0.02 0.03 0.04 0.04 0.05 0.05 0.03 0.03 0.03 0.04 0.03 0.03 0.03 0.02 0.02 0.02 0.02 0.02 0.02 0.02 0.01 0.01 0.01 0.02 0.02
0.03 0.03 0.03 0.03 0.03 0.03 0.02 0.02 0.02 0.02 0.02 0.03 0.03 0.02 0.02 0.03 0.02 0.04 0.07 0.05 0.03 0.04 0.05 0.04 0.04 0.03 0.03 0.02 0.02 0.02 0.02 0.02 0.02 0.02 0.01 0.01 0.01 0.01
0.02 0.02 0.03 0.04 0.04 0.03 0.02 0.02 0.02 0.02 0.02 0.03 0.03 0.03 0.02 0.03 0.04 0.06 0.06 0.06 0.07 0.09 0.08 0.05 0.05 0.05 0.04 0.03 0.02 0.02 0.02 0.02 0.02 0.02 0.02 0.02 0.02 0.02
0.02 0.02 0.03 0.04 0.04 0.03 0.02 0.02 0.02 0.02 0.02 0.03 0.03 0.03 0.02 0.03 0.06 0.07 0.09 0.09 0.06 0.06 0.07 0.06 0.05 0.05 0.05 0.04 0.03 0.03 0.02 0.02 0.02 0.02 0.02 0.03 0.02 0.02
0.02 0.02 0.03 0.03 0.03 0.03 0.02 0.02 0.01 0.01 0.02 0.03 0.03 0.02 0.02 0.03 0.04 0.06 0.08 0.06 0.03 0.03 0.03 0.04 0.04 0.05 0.05 0.04 0.04 0.03 0.03 0.02 0.02 0.02 0.02 0.02 0.02 0.02
0.03 0.03 0.04 0.03 0.03 0.02 0.02 0.01 0.01 0.01 0.02 0.03 0.02 0.02 0.01 0.02 0.03 0.04 0.07 0.07 0.04 0.03 0.03 0.03 0.03 0.05 0.06 0.04 0.03 0.03 0.03 0.03 0.03 0.02 0.02 0.02 0.02 0.02
0.02 0.02 0.03 0.03 0.03 0.03 0.02 0.01 0.01 0.01 0.02 0.02 0.02 0.02 0.02 0.02 0.02 0.03 0.04 0.05 0.03 0.02 0.02 0.03 0.02 0.02 0.04 0.03 0.03 0.03 0.03 0.02 0.02 0.02 0.02 0.02 0.02 0.02
0.01 0.02 0.02 0.02 0.02 0.02 0.02 0.02 0.02 0.02 0.02 0.03 0.03 0.03 0.03 0.02 0.02 0.02 0.02 0.03 0.03 0.02 0.02 0.02 0.01 0.02 0.02 0.02 0.02 0.02 0.02 0.01 0.01 0.01 0.01 0.01 0.01 0.01
0.01 0.01 0.01 0.02 0.02 0.02 0.02 0.02 0.02 0.03 0.03 0.04 0.04 0.03 0.03 0.02 0.02 0.02 0.02 0.02 0.02 0.02 0.02 0.01 0.01 0.02 0.02 0.02 0.02 0.01 0.01 0.01 0.00 0.00 0.01 0.01 0.01 0.02
0.01 0.01 0.01 0.01 0.02 0.03 0.03 0.02 0.02 0.03 0.03 0.03 0.03 0.04 0.03 0.02 0.01 0.01 0.01 0.01 0.01 0.01 0.01 0.01 0.01 0.02 0.02 0.02 0.02 0.01 0.01 0.01 0.01 0.00 0.00 0.00 0.00 0.01
0.00 0.01 0.01 0.01 0.02 0.02 0.03 0.03 0.03 0.03 0.02 0.01 0.01 0.02 0.01 0.01 0.00 0.00 0.01 0.00 0.00 0.00 0.01 0.01 0.01 0.02 0.03 0.04 0.02 0.02 0.02 0.02 0.01 0.01 0.01 0.01 0.00 0.01
0.01 0.01 0.01 0.02 0.02 0.02 0.02 0.02 0.02 0.01 0.01 0.01 0.01 0.01 0.01 0.01 0.01 0.00 0.01 0.01 0.01 0.01 0.01 0.01 0.01 0.02 0.03 0.04 0.04 0.03 0.03 0.03 0.02 0.02 0.02 0.01 0.01 0.01
0.01 0.01 0.01 0.02 0.01 0.01 0.01 0.01 0.01 0.01 0.00 0.01 0.01 0.01 0.01 0.01 0.01 0.01 0.01 0.01 0.01 0.01 0.01 0.01 0.01 0.02 0.02 0.02 0.02 0.02 0.02 0.01 0.02 0.02 0.02 0.02 0.01 0.01
0.01 0.01 0.01 0.01 0.01 0.01 0.01 0.01 0.01 0.00 0.01 0.01 0.01 0.01 0.01 0.01 0.01 0.01 0.01 0.01 0.01 0.01 0.00 0.01 0.01 0.01 0.02 0.02 0.01 0.01 0.00 0.00 0.01 0.01 0.01 0.02 0.02 0.01
0.01 0.01 0.01 0.01 0.01 0.01 0.01 0.01 0.00 0.01 0.01 0.01 0.01 0.01 0.01 0.01 0.01 0.01 0.01 0.02 0.02 0.01 0.01 0.01 0.01 0.01 0.01 0.02 0.01 0.01 0.00 0.00 0.00 0.01 0.01 0.01 0.01 0.01
0.01 0.01 0.01 0.01 0.01 0.01 0.00 0.00 0.00 0.01 0.01 0.01 0.01 0.00 0.00 0.01 0.01 0.01 0.01 0.02 0.02 0.01 0.01 0.01 0.01 0.01 0.02 0.02 0.01 0.00 0.01 0.01 0.01 0.01 0.01 0.01 0.01 0.01
0.02 0.01 0.01 0.01 0.01 0.00 0.01 0.00 0.00 0.00 0.00 0.01 0.01 0.01 0.01 0.01 0.01 0.01 0.01 0.02 0.01 0.01 0.01 0.01 0.01 0.01 0.02 0.02 0.01 0.00 0.01 0.01 0.01 0.01 0.01 0.01 0.01 0.01
0.01 0.01 0.01 0.01 0.01 0.01 0.00 0.00 0.00 0.00 0.00 0.01 0.01 0.01 0.01 0.01 0.01 0.01 0.01 0.01 0.01 0.01 0.01 0.02 0.02 0.02 0.02 0.01 0.01 0.00 0.01 0.01 0.02 0.02 0.01 0.01 0.01 0.01
MSLP
1019.23 1019.47 1019.75 1020.07 1020.40 1020.70 1020.97 1021.18 1021.34 1021.46 1021.55 1021.64 1021.72 1021.83 1021.94 1022.07 1022.20 1022.33 1022.46 1022.57 1022.68 1022.80 1022.92 1023.05 1023.19 1023.34 1023.49 1023.64 1023.78 1023.91 1024.01 1024.09 1024.15 1024.17 1024.16 1024.12 1024.03 1023.90
1018.83 1019.06 1019.33 1019.63 1019.93 1020.23 1020.50 1020.73 1020.92 1021.09 1021.23 1021.37 1021.50 1021.63 1021.76 1021.89 1022.01 1022.11 1022.20 1022.29 1022.37 1022.47 1022.59 1022.73 1022.90 1023.09 1023.30 1023.50 1023.70 1023.87 1024.02 1024.12 1024.19 1024.22 1024.21 1024.15 1024.04 1023.89
1018.34 1018.58 1018.85 1019.13 1019.43 1019.72 1020.00 1020.26 1020.49 1020.71 1020.91 1021.10 1021.27 1021.43 1021.58 1021.70 1021.80 1021.88 1021.93 1021.98 1022.03 1022.11 1022.22 1022.37 1022.56 1022.78 1023.02 1023.27 1023.51 1023.73 1023.91 1024.04 1024.13 1024.17 1024.16 1024.10 1024.00 1023.86
1017.80 1018.05 1018.32 1018.61 1018.91 1019.21 1019.50 1019.79 1020.06 1020.33 1020.58 1020.82 1021.04 1021.24 1021.40 1021.53 1021.61 1021.66 1021.68 1021.69 1021.71 1021.76 1021.85 1021.99 1022.19 1022.42 1022.69 1022.97 1023.24 1023.48 1023.68 1023.83 1023.93 1023.98 1023.98 1023.94 1023.87 1023.77
1017.21 1017.47 1017.76 1018.05 1018.36 1018.67 1018.99 1019.30 1019.62 1019.93 1020.23 1020.52 1020.79 1021.02 1021.21 1021.34 1021.42 1021.46 1021.45 1021.44 1021.43 1021.45 1021.52 1021.65 1021.83 1022.06 1022.32 1022.60 1022.87 1023.11 1023.31 1023.46 1023.57 1023.63 1023.66 1023.65 1023.63 1023.59
1016.59 1016.86 1017.15 1017.46 1017.77 1018.10 1018.43 1018.77 1019.12 1019.47 1019.82 1020.16 1020.47 1020.74 1020.95 1021.11 1021.20 1021.24 1021.23 1021.21 1021.18 1021.18 1021.23 1021.33 1021.49 1021.69 1021.92 1022.17 1022.41 1022.63 1022.82 1022.96 1023.07 1023.14 1023.20 1023.24 1023.27 1023.30
1015.92 1016.20 1016.50 1016.81 1017.13 1017.47 1017.81 1018.17 1018.54 1018.91 1019.29 1019.67 1020.02 1020.33 1020.58 1020.78 1020.90 1020.97 1020.98 1020.96 1020.94 1020.94 1020.97 1021.04 1021.16 1021.32 1021.51 1021.71 1021.91 1022.08 1022.23 1022.35 1022.45 1022.54 1022.62 1022.71 1022.80 1022.89
1015.22 1015.50 1015.80 1016.11 1016.43 1016.76 1017.11 1017.47 1017.84 1018.23 1018.63 1019.03 1019.41 1019.76 1020.06 1020.31 1020.48 1020.59 1020.65 1020.67 1020.67 1020.68 1020.71 1020.76 1020.85 1020.97 1021.10 1021.24 1021.38 1021.50 1021.61 1021.70 1021.79 1021.88 1021.99 1022.11 1022.25 1022.39
1014.49 1014.76 1015.06 1015.36 1015.67 1016.00 1016.33 1016.68 1017.05 1017.44 1017.84 1018.25 1018.66 1019.04 1019.39 1019.68 1019.92 1020.09 1020.22 1020.29 1020.34 1020.38 1020.42 1020.48 1020.54 1020.62 1020.70 1020.79 1020.86 1020.93 1020.99 1021.06 1021.13 1021.23 1021.35 1021.49 1021.66 1021.82
1013.74 1014.01 1014.30 1014.60 1014.91 1015.22 1015.53 1015.86 1016.21 1016.58 1016.97 1017.38 1017.79 1018.20 1018.59 1018.93 1019.23 1019.48 1019.67 1019.82 1019.93 1020.02 1020.10 1020.17 1020.23 1020.29 1020.34 1020.38 1020.40 1020.42 1020.45 1020.48 1020.54 1020.62 1020.75 1020.90 1021.07 1021.24
1012.99 1013.28 1013.58 1013.88 1014.17 1014.47 1014.76 1015.07 1015.39 1015.73 1016.09 1016.48 1016.89 1017.31 1017.71 1018.10 1018.45 1018.76 1019.03 1019.26 1019.44 1019.60 1019.72 1019.83 1019.91 1019.97 1020.00 1020.02 1020.01 1020.00 1019.99 1019.99 1020.02 1020.10 1020.21 1020.35 1020.52 1020.66
1012.29 1012.60 1012.91 1013.22 1013.52 1013.81 1014.08 1014.36 1014.64 1014.94 1015.27 1015.63 1016.02 1016.42 1016.84 1017.24 1017.63 1018.00 1018.33 1018.62 1018.88 1019.11 1019.29 1019.45 1019.56 1019.64 1019.69 1019.70 1019.68 1019.64 1019.60 1019.58 1019.59 1019.63 1019.72 1019.84 1019.97 1020.09
1011.65 1011.99 1012.33 1012.66 1012.96 1013.24 1013.50 1013.75 1014.01 1014.27 1014.56 1014.88 1015.23 1015.60 1016.00 1016.41 1016.81 1017.21 1017.58 1017.93 1018.26 1018.55 1018.80 1019.01 1019.18 1019.30 1019.37 1019.39 1019.37 1019.32 1019.26 1019.21 1019.18 1019.19 1019.24 1019.32 1019.42 1019.49
1011.05 1011.43 1011.81 1012.16 1012.48 1012.76 1013.02 1013.25 1013.47 1013.70 1013.94 1014.22 1014.52 1014.86 1015.23 1015.61 1016.01 1016.41 1016.81 1017.20 1017.57 1017.91 1018.23 1018.50 1018.73 1018.89 1019.00 1019.04 1019.03 1018.97 1018.89 1018.81 1018.74 1018.71 1018.71 1018.75 1018.80 1018.84
1010.49 1010.91 1011.32 1011.69 1012.03 1012.32 1012.56 1012.78 1012.98 1013.18 1013.39 1013.62 1013.88 1014.17 1014.50 1014.85 1015.22 1015.61 1016.01 1016.42 1016.82 1017.20 1017.57 1017.90 1018.18 1018.39 1018.54 1018.61 1018.61 1018.55 1018.45 1018.34 1018.22 1018.13 1018.08 1018.06 1018.07 1018.09
1009.92 1010.37 1010.80 1011.19 1011.54 1011.83 1012.08 1012.29 1012.47 1012.65 1012.83 1013.03 1013.25 1013.50 1013.78 1014.09 1014.43 1014.79 1015.18 1015.58 1016.00 1016.41 1016.81 1017.18 1017.51 1017.77 1017.96 1018.06 1018.08 1018.02 1017.90 1017.75 1017.59 1017.44 1017.33 1017.26 1017.23 1017.23
1009.33 1009.79 1010.22 1010.61 1010.95 1011.24 1011.49 1011.69 1011.87 1012.03 1012.19 1012.37 1012.56 1012.78 1013.03 1013.30 1013.61 1013.94 1014.31 1014.70 1015.11 1015.53 1015.95 1016.36 1016.72 1017.02 1017.25 1017.38 1017.42 1017.36 1017.24 1017.06 1016.85 1016.66 1016.49 1016.38 1016.31 1016.30
1008.70 1009.13 1009.54 1009.92 1010.24 1010.52 1010.75 1010.95 1011.12 1011.28 1011.44 1011.61 1011.80 1012.00 1012.23 1012.48 1012.75 1013.06 1013.40 1013.77 1014.17 1014.59 1015.02 1015.45 1015.84 1016.17 1016.43 1016.59 1016.66 1016.62 1016.50 1016.30 1016.08 1015.85 1015.64 1015.48 1015.39 1015.36
1008.02 1008.42 1008.78 1009.12 1009.41 1009.66 1009.88 1010.07 1010.24 1010.41 1010.58 1010.75 1010.95 1011.15 1011.37 1011.62 1011.88 1012.17 1012.49 1012.84 1013.22 1013.64 1014.06 1014.49 1014.90 1015.26 1015.55 1015.75 1015.85 1015.84 1015.74 1015.56 1015.33 1015.09 1014.86 1014.68 1014.57 1014.53
1007.33 1007.66 1007.97 1008.25 1008.50 1008.71 1008.91 1009.08 1009.26 1009.44 1009.62 1009.82 1010.04 1010.27 1010.50 1010.75 1011.02 1011.30 1011.61 1011.94 1012.31 1012.70 1013.12 1013.55 1013.96 1014.34 1014.66 1014.90 1015.05 1015.09 1015.03 1014.89 1014.69 1014.47 1014.25 1014.07 1013.94 1013.89
1006.64 1006.90 1007.14 1007.36 1007.55 1007.73 1007.89 1008.06 1008.24 1008.43 1008.64 1008.87 1009.12 1009.38 1009.65 1009.92 1010.20 1010.49 1010.79 1011.12 1011.47 1011.85 1012.25 1012.67 1013.08 1013.47 1013.82 1014.10 1014.30 1014.40 1014.41 1014.34 1014.20 1014.03 1013.84 1013.67 1013.56 1013.50
1005.97 1006.15 1006.32 1006.48 1006.62 1006.75 1006.89 1007.05 1007.22 1007.43 1007.67 1007.94 1008.23 1008.53 1008.84 1009.15 1009.46 1009.76 1010.07 1010.39 1010.72 1011.09 1011.47 1011.87 1012.28 1012.68 1013.05 1013.38 1013.63 1013.80 1013.89 1013.91 1013.85 1013.75 1013.62 1013.50 1013.41 1013.36
1005.32 1005.43 1005.53 1005.63 1005.72 1005.82 1005.93 1006.07 1006.25 1006.48 1006.74 1007.05 1007.38 1007.73 1008.09 1008.44 1008.78 1009.11 1009.44 1009.76 1010.09 1010.43 1010.80 1011.18 1011.58 1011.98 1012.37 1012.73 1013.03 1013.28 1013.45 1013.56 1013.60 1013.58 1013.54 1013.48 1013.42 1013.39
Thickness
5673 5672 5670 5669 5668 5666 5664 5661 5656 5652 5654 5659 5662 5665 5665 5666 5666 5665 5665 5666 5665 5665 5665 5665 5664 5664 5664 5663 5662 5662 5660 5659 5659 5658 5658 5657 5657 5657
5670 5668 5667 5666 5664 5663 5662 5660 5658 5654 5652 5656 5658 5660 5661 5661 5661 5661 5661 5661 5661 5661 5661 5661 5660 5660 5659 5658 5658 5657 5656 5655 5654 5654 5653 5653 5653 5652
5667 5665 5664 5663 5661 5660 5659 5657 5655 5653 5650 5653 5654 5655 5656 5656 5656 5656 5656 5656 5657 5657 5657 5656 5656 5655 5655 5654 5653 5652 5652 5651 5650 5649 5649 5648 5648 5648
5664 5663 5661 5661 5659 5657 5656 5654 5653 5652 5649 5648 5649 5650 5650 5650 5651 5650 5651 5652 5652 5652 5652 5651 5651 5651 5650 5649 5649 5648 5647 5646 5645 5645 5644 5643 5643 5642
5662 5659 5658 5657 5655 5654 5653 5651 5650 5649 5647 5645 5645 5645 5644 5645 5644 5644 5645 5645 5646 5647 5646 5646 5646 5645 5645 5644 5644 5644 5643 5642 5641 5640 5639 5638 5638 5637
5659 5657 5655 5654 5652 5651 5650 5648 5647 5645 5643 5641 5640 5639 5638 5638 5638 5637 5637 5638 5639 5641 5641 5641 5641 5641 5640 5640 5639 5639 5639 5637 5636 5635 5634 5634 5633 5632
5654 5653 5652 5651 5650 5648 5647 5645 5643 5640 5638 5636 5634 5633 5632 5631 5630 5631 5631 5631 5633 5634 5634 5634 5634 5634 5634 5634 5634 5634 5634 5633 5632 5630 5629 5629 5628 5627
5649 5648 5648 5647 5646 5645 5644 5643 5641 5638 5635 5632 5630 5628 5627 5626 5626 5626 5624 5623 5622 5626 5626 5626 5627 5627 5628 5629 5630 5630 5629 5628 5627 5626 5625 5624 5623 5622
5644 5643 5643 5642 5641 5639 5639 5638 5637 5636 5634 5631 5627 5626 5624 5624 5621 5619 5618 5617 5618 5619 5619 5618 5619 5619 5621 5622 5623 5624 5624 5623 5622 5621 5620 5619 5618 5617
5639 5638 5636 5635 5636 5634 5632 5631 5630 5630 5629 5628 5626 5624 5623 5621 5619 5617 5615 5613 5612 5613 5613 5610 5611 5612 5613 5614 5616 5616 5616 5616 5615 5615 5614 5613 5612 5611
5634 5633 5631 5630 5630 5629 5626 5624 5623 5623 5624 5623 5622 5620 5619 5617 5615 5612 5609 5606 5604 5605 5605 5604 5604 5603 5604 5606 5608 5608 5608 5609 5608 5608 5607 5607 5606 5604
5628 5628 5627 5626 5625 5623 5620 5618 5617 5617 5617 5617 5615 5614 5613 5612 5611 5608 5605 5601 5599 5597 5599 5597 5597 5595 5595 5598 5599 5600 5601 5601 5601 5601 5600 5600 5599 5597
5624 5622 5622 5622 5620 5619 5617 5615 5614 5613 5611 5610 5608 5607 5606 5605 5605 5604 5602 5599 5596 5594 5595 5593 5591 5589 5587 5588 5590 5592 5593 5594 5594 5594 5594 5593 5591 5590
5620 5619 5618 5617 5616 5614 5612 5611 5610 5608 5605 5603 5601 5599 5599 5599 5600 5600 5599 5597 5596 5593 5593 5590 5587 5585 5582 5581 5582 5584 5586 5587 5587 5587 5587 5586 5584 5583
5617 5616 5614 5613 5611 5609 5608 5606 5604 5601 5599 5596 5595 5594 5594 5595 5594 5594 5594 5593 5591 5590 5588 5587 5584 5582 5579 5578 5578 5578 5578 5580 5581 5581 5580 5579 5578 5577
5612 5610 5609 5607 5606 5604 5602 5601 5599 5596 5594 5593 5592 5591 5590 5589 5588 5587 5586 5585 5584 5584 5584 5582 5581 5578 5575 5575 5574 5573 5574 5574 5575 5575 5574 5573 5573 5572
5606 5603 5601 5600 5598 5598 5596 5595 5594 5592 5590 5588 5587 5586 5585 5584 5583 5582 5581 5579 5577 5577 5576 5577 5576 5575 5573 5571 5569 5570 5569 5569 5570 5569 5567 5566 5567 5568
5600 5597 5596 5595 5594 5594 5593 5591 5590 5588 5587 5585 5583 5581 5580 5579 5578 5577 5576 5574 5572 5571 5571 5570 5569 5567 5566 5567 5567 5565 5564 5563 5563 5563 5561 5560 5561 5563
5595 5593 5593 5592 5592 5591 5590 5588 5587 5586 5584 5582 5579 5578 5576 5575 5573 5571 5570 5568 5566 5566 5565 5564 5562 5559 5557 5558 5562 5562 5559 5558 5557 5555 5555 5554 5555 5558
5591 5590 5590 5590 5589 5588 5586 5585 5584 5582 5579 5577 5575 5574 5572 5570 5568 5566 5564 5563 5561 5560 5559 5559 5557 5555 5553 5553 5553 5555 5556 5553 5551 5550 5550 5549 5549 5551
5587 5587 5587 5586 5585 5584 5582 5581 5579 5577 5575 5573 5571 5570 5568 5565 5563 5562 5560 5558 5556 5554 5554 5554 5555 5554 5550 5547 5545 5547 5549 5549 5548 5545 5544 5542 5541 5541
5584 5583 5583 5582 5580 5579 5577 5576 5574 5572 5570 5569 5567 5565 5564 5562 5559 5557 5554 5552 5550 5549 5549 5550 5549 5547 5543 5541 5541 5541 5542 5542 5542 5541 5540 5539 5536 5535
5580 5579 5578 5576 5575 5573 5572 5571 5569 5567 5566 5565 5563 5561 5559 5557 5555 5552 5550 5548 5546 5545 5544 5543 5541 5539 5538 5537 5535 5535 5536 5536 5535 5534 5534 5535 5534 5534